TimeEST,TemperatureF,Dew PointF,Humidity,Sea Level PressureIn,VisibilityMPH,Wind Direction,Wind SpeedMPH,Gust SpeedMPH,PrecipitationIn,Events,Conditions,WindDirDegrees,DateUTC
12:53 AM,64.9,48.9,56,30.12,10.0,NNE,11.5,23.0,N/A,,Clear,20,2012-11-23 05:53:00
1:53 AM,64.9,46.9,52,30.12,10.0,North,13.8,20.7,N/A,,Clear,10,2012-11-23 06:53:00
2:53 AM,64.0,46.0,52,30.11,10.0,NNE,11.5,18.4,N/A,,Clear,20,2012-11-23 07:53:00
3:53 AM,64.0,51.1,63,30.11,10.0,NNE,10.4,-,N/A,,Clear,20,2012-11-23 08:53:00
4:53 AM,63.0,53.1,70,30.11,10.0,NNE,11.5,-,N/A,,Clear,20,2012-11-23 09:53:00
5:53 AM,63.0,55.0,75,30.12,10.0,NNE,12.7,-,N/A,,Clear,20,2012-11-23 10:53:00
6:53 AM,63.0,55.9,78,30.14,10.0,NNE,8.1,17.3,N/A,,Clear,20,2012-11-23 11:53:00
7:53 AM,64.9,57.0,75,30.15,10.0,NNE,11.5,-,N/A,,Clear,20,2012-11-23 12:53:00
8:53 AM,66.9,57.9,73,30.17,10.0,North,10.4,-,N/A,,Clear,10,2012-11-23 13:53:00
9:53 AM,68.0,57.9,70,30.18,10.0,North,12.7,21.9,N/A,,Clear,10,2012-11-23 14:53:00
10:53 AM,69.1,57.9,68,30.17,10.0,North,11.5,-,N/A,,Clear,360,2012-11-23 15:53:00
11:53 AM,69.1,57.9,68,30.15,10.0,North,12.7,-,N/A,,Clear,360,2012-11-23 16:53:00
12:53 PM,70.0,57.9,65,30.12,10.0,North,13.8,-,N/A,,Clear,360,2012-11-23 17:53:00
1:53 PM,71.1,59.0,66,30.10,10.0,North,12.7,-,N/A,,Clear,360,2012-11-23 18:53:00
2:53 PM,71.1,59.0,66,30.09,10.0,North,11.5,-,N/A,,Clear,360,2012-11-23 19:53:00
3:53 PM,70.0,57.9,65,30.09,10.0,North,11.5,-,N/A,,Clear,360,2012-11-23 20:53:00
4:53 PM,70.0,59.0,68,30.09,10.0,North,11.5,-,N/A,,Clear,360,2012-11-23 21:53:00
5:53 PM,68.0,57.9,70,30.09,10.0,North,11.5,-,N/A,,Clear,350,2012-11-23 22:53:00
6:53 PM,68.0,57.9,70,30.10,10.0,North,9.2,-,N/A,,Clear,350,2012-11-23 23:53:00
7:53 PM,68.0,57.9,70,30.12,10.0,North,10.4,-,N/A,,Clear,350,2012-11-24 00:53:00
8:53 PM,68.0,57.9,70,30.13,10.0,North,8.1,-,N/A,,Clear,350,2012-11-24 01:53:00
9:53 PM,68.0,57.0,68,30.13,10.0,North,6.9,-,N/A,,Clear,350,2012-11-24 02:53:00
10:53 PM,68.0,57.9,70,30.13,10.0,North,9.2,-,N/A,,Clear,350,2012-11-24 03:53:00
11:53 PM,68.0,54.0,61,30.11,10.0,North,11.5,-,N/A,,Clear,350,2012-11-24 04:53:00